Valley, United Kingdom

5:24 PM BST on May 22, 2017 (GMT +0100)
Valley Air Base

Weather History for EGOV - December, 2012

Change the Weather History Date:

Thursday, December 6, 2012

  Actual Average Record
Temperature  
Mean Temperature 40 °F -  
Max Temperature 46 °F 48 °F 55 °F (2007)
Min Temperature 33 °F 39 °F 26 °F (2010)
Degree Days  
Heating Degree Days 26    
Moisture  
Dew Point 36 °F    
Average Humidity 76    
Maximum Humidity 93    
Minimum Humidity 52    
Precipitation  
Precipitation 0.20 in 0.12 in - ()
Sea Level Pressure  
Sea Level Pressure 29.70 in    
Wind  
Wind Speed 20 mph ()    
Max Wind Speed 39 mph    
Max Gust Speed 51 mph    
Visibility 6.3 miles    
Events Rain    
Averages and records for this station are not official NWS values.
T = Trace of Precipitation, MM = Missing Value Source: Averaged Metar Reports

Daily Weather History Graph

Daily Weather History Graph

Search for Another Location

Airport or City:

Trip Planner

Search our weather history database for the weather conditions in past years. The results will help you decide how hot, cold, wet, or windy it might be!

Date:

Astronomy

Dec. 06, 2012 Rise Set
Actual Time 8:17 AM GMT 4:01 PM GMT
Civil Twilight 7:35 AM GMT 4:43 PM GMT
Nautical Twilight 6:50 AM GMT 5:27 PM GMT
Astronomical Twilight 6:08 AM GMT 6:09 PM GMT
Moon No Moon Rise 12:15 PM GMT (12/6)
Length of Visible Light 9h 07m
Length of Day
7h 43m
Waning Gibbous, 52% of the Moon is Illuminated
Dec 6
Waning Gibbous
Dec 6
Last Quarter
Dec 13
New
Dec 20
First Quarter
Dec 28
Full

Hourly Weather History & Observations

Time (GMT) Temp. Windchill Dew Point Humidity Pressure Visibility Wind Dir Wind Speed Gust Speed Precip Events Conditions
12:50 AM 33.8 °F 27.7 °F 28.4 °F 81% 30.01 in 6.2 mi SE 6.9 mph - N/A   Mostly Cloudy
1:50 AM 35.6 °F 28.6 °F 28.4 °F 75% 30.01 in 6.2 mi SSE 9.2 mph - N/A   Mostly Cloudy
2:50 AM 39 °F - 33 °F 70% 30.01 in 12 mi South 13.8 mph - - Rain Light Rain Showers
2:50 AM 39.2 °F 31.2 °F 32.0 °F 75% 30.01 in 6.2 mi South 13.8 mph - N/A Rain Light Rain Showers
3:50 AM 41.0 °F 32.2 °F 35.6 °F 81% 29.98 in 6.2 mi South 18.4 mph - N/A   Mostly Cloudy
4:50 AM 41.0 °F 32.5 °F 33.8 °F 76% 29.98 in 6.2 mi SW 17.3 mph - N/A   Mostly Cloudy
5:50 AM 42 °F - 30 °F 52% 29.96 in 25 mi SW 17.3 mph - -   Partly Cloudy
5:50 AM 42.8 °F 34.8 °F 30.2 °F 61% 29.95 in 6.2 mi SW 17.3 mph - N/A   Mostly Cloudy
6:50 AM 42.8 °F 34.0 °F 32.0 °F 66% 29.92 in 6.2 mi SW 20.7 mph - N/A   Mostly Cloudy
7:50 AM 42.8 °F 33.3 °F 33.8 °F 70% 29.89 in 6.2 mi SW 24.2 mph - N/A   Scattered Clouds
8:50 AM 44 °F - 35 °F 61% 29.89 in 25 mi SW 26.5 mph - -   Overcast
8:50 AM 44.6 °F 35.3 °F 35.6 °F 71% 29.89 in 6.2 mi SW 26.5 mph - N/A   Overcast
9:50 AM 44.6 °F 35.3 °F 35.6 °F 71% 29.86 in 6.2 mi SW 26.5 mph - N/A   Overcast
10:50 AM 46.4 °F 37.0 °F 35.6 °F 66% 29.80 in 6.2 mi SW 31.1 mph - N/A Rain Light Rain
11:50 AM 45 °F - 38 °F 68% 29.78 in 6 mi WSW 34.5 mph - - Rain Rain
11:50 AM 44.6 °F 34.1 °F 37.4 °F 76% 29.77 in 6.2 mi WSW 34.5 mph - N/A Rain Rain
12:50 PM 44.6 °F 33.9 °F 39.2 °F 81% 29.74 in 5.6 mi WSW 35.7 mph - N/A Rain Rain
1:50 PM 44.6 °F 34.2 °F 41.0 °F 87% 29.68 in 3.7 mi SW 33.4 mph - N/A Rain Rain
2:50 PM 44 °F - 41 °F 85% 29.63 in 3 mi SW 36.8 mph - - Rain Rain
2:50 PM 44.6 °F 33.8 °F 41.0 °F 87% 29.62 in 4.3 mi SW 36.8 mph 49.5 mph N/A Rain Rain
3:50 PM 46.4 °F 36.5 °F 41.0 °F 81% 29.56 in 6.2 mi SW 34.5 mph 47.2 mph N/A Rain Rain
4:50 PM 46.4 °F 36.0 °F 41.0 °F 81% 29.50 in 6.2 mi WSW 39.1 mph 50.6 mph N/A Rain Light Rain
5:05 PM 46.4 °F 36.0 °F 41.0 °F 81% 29.47 in 6.2 mi WSW 39.1 mph 50.6 mph N/A Rain Light Rain
5:50 PM 46 °F - 42 °F 83% 29.47 in 6 mi WSW 35.7 mph - - Rain Light Rain
5:50 PM 46.4 °F 36.4 °F 42.8 °F 87% 29.44 in 6.2 mi WSW 35.7 mph 47.2 mph N/A Rain Light Rain
6:50 PM 44.6 °F 34.9 °F 42.8 °F 93% 29.42 in 3.7 mi WSW 28.8 mph - N/A Rain Rain
7:01 PM 42.8 °F 33.1 °F 39.2 °F 87% 29.44 in 2.5 mi West 25.3 mph - N/A   Small Hail
7:11 PM 42.8 °F 34.3 °F 41.0 °F 93% 29.44 in 6.2 mi WNW 19.6 mph - N/A Rain Rain Showers
7:50 PM 42.8 °F 32.9 °F 35.6 °F 76% 29.44 in 6.2 mi WNW 26.5 mph - N/A Rain Light Rain Showers
8:50 PM 43 °F - 37 °F 72% 29.46 in 19 mi WNW 27.6 mph - - Rain Light Rain Showers
8:50 PM 42.8 °F 32.7 °F 37.4 °F 81% 29.44 in 6.2 mi WNW 27.6 mph - N/A   Overcast
9:50 PM 42.8 °F 33.1 °F 35.6 °F 76% 29.47 in 6.2 mi WNW 25.3 mph - N/A   Mostly Cloudy
10:50 PM 42.8 °F 33.3 °F 35.6 °F 76% 29.47 in 6.2 mi WNW 24.2 mph 40.3 mph N/A   Partly Cloudy
11:50 PM 42 °F - 34 °F 64% 29.49 in 22 mi WNW 21.9 mph - -   Partly Cloudy
11:50 PM 42.8 °F 33.8 °F 33.8 °F 70% 29.47 in 6.2 mi WNW 21.9 mph 33.4 mph N/A   Partly Cloudy